Flag for U.S.A. Weather past 2 weeks in Columbia, South Carolina, U.S.A.

Now
73 °F

Clear.


Feels Like: 73 °F
Forecast: 65 / 77 °F
Wind: No wind

Location: Columbia Owens Downtown Airport

Current Time: Sep 21, 2014 at 11:09:37 PM

Latest Report: Sep 21, 2014 at 10:53 PM


Visibility: 10 mi

Pressure: 29.93 "Hg

Humidity: 79%

Dew point: 66 °F

Location of ColumbiaLocation

Historic Weather in Columbia — Graph

°F

Columbia temperature yesterday

Maximum temperature yesterday: 81 °F (at 1:53 PM)
Minimum temperature yesterday: 65 °F (at 6:53 AM)
Average temperature yesterday: 72 °F

Past Weeks' High & Low Weather Summary

 TemperatureHumidityPressure
High93 °F (Sep 11, 3:53 PM)94% (Sep 7, 5:53 AM)30.24 "Hg (Sep 7, 5:53 AM)
Low62 °F (Sep 21, 6:53 AM)39% (Sep 21, 4:53 PM)29.87 "Hg (Sep 21, 5:53 PM)
Average76 °F78%30.04 "Hg
* Reported Sep 6 9:53 PM — Sep 21 9:53 PM, Columbia, Weather by CustomWeather, © 2014

Note: Actual official high and low records may vary slightly from our data, if they occured in-between our weather recording intervals... More about our weather records

Advertising

Columbia weather history for previous 24 hours

 ConditionsComfort  
Time TempWeatherWind HumidityBarometerVisibility
9:53 PM
Sep 21
74 °FClear.No wind76%29.92 "Hg10 mi
8:53 PM76 °FClear.No wind69%29.91 "Hg10 mi
7:53 PM81 °FSunny.No wind54%29.89 "Hg10 mi
6:53 PM85 °FSunny.5 mph46%29.87 "Hg10 mi
5:53 PM88 °FSunny.9 mph40%29.87 "Hg10 mi
4:53 PM88 °FSunny.13 mph39%29.87 "Hg10 mi
3:53 PM89 °FScattered clouds.6 mph41%29.88 "Hg10 mi
2:53 PM88 °FSunny.8 mph40%29.88 "Hg10 mi
1:53 PM87 °FSunny.12 mph42%29.91 "Hg10 mi
12:53 PM84 °FSunny.8 mph46%29.96 "Hg10 mi
11:53 AM82 °FSunny.8 mph48%29.97 "Hg10 mi
10:53 AM77 °FSunny.3 mph60%29.99 "Hg10 mi
9:53 AM72 °FSunny.No wind66%29.99 "Hg10 mi
8:53 AM68 °FSunny.No wind76%29.98 "Hg10 mi
7:53 AM64 °FClear.No wind87%29.97 "Hg9 mi
6:53 AM62 °FClear.No wind90%29.96 "Hg8 mi
5:53 AM64 °FClear.No wind87%29.94 "Hg10 mi
4:53 AM66 °FClear.3 mph78%29.94 "Hg10 mi
3:53 AM67 °FClear.No wind76%29.94 "Hg10 mi
2:53 AM67 °FClear.No wind76%29.95 "Hg10 mi
1:53 AM68 °FClear.No wind73%29.97 "Hg10 mi
12:53 AM68 °FClear.No wind76%29.98 "Hg10 mi
11:53 PM
Sep 20
68 °FClear.No wind78%29.99 "Hg10 mi
Weather by CustomWeather, © 2014

See weather overviewHow to use our weather pages